When you browse on this site, cookies collect data to enhance your experience and personalize the content and advertising you see.
Visit our Privacy Policy to learn more. By continuing to use the site, you agree to this use of cookies and data.
  • In United Kingdom
  • List of Countries
  • For 7 days
  • Water Temperature
  • Satellite Maps
  • Weather Map
  • Weather Widgets
  • user-avatar
    Login

    Hourly Weather Perm

    Today, 17 July, Wednesday

    Time Temperature Precipitation Wind Pressure Humidity
    00:00 +14°C° 0 mm 2 mps 749 mmHg 96%
    01:00 +14°C° 0 mm 2 mps 749 mmHg 96%
    02:00 +13°C° 0 mm 2 mps 749 mmHg 97%
    03:00 +13°C° 0 mm 2 mps 750 mmHg 97%
    04:00 +12°C° 0 mm 1 mps 750 mmHg 97%
    05:00 +14°C° 0 mm 2 mps 750 mmHg 93%
    06:00 +15°C° 0 mm 2 mps 751 mmHg 89%
    07:00 +16°C° 0 mm 2 mps 751 mmHg 84%
    08:00 +18°C° 0 mm 2 mps 751 mmHg 75%
    09:00 +20°C° 0 mm 2 mps 751 mmHg 65%
    10:00 +21°C° 0 mm 2 mps 751 mmHg 55%
    11:00 +23°C° 0 mm 2 mps 751 mmHg 52%
    12:00 +24°C° 0 mm 3 mps 751 mmHg 50%
    13:00 +25°C° 0 mm 3 mps 751 mmHg 47%
    14:00 +25°C° 0 mm 3 mps 751 mmHg 46%
    15:00 +25°C° 0 mm 2 mps 750 mmHg 46%
    16:00 +25°C° 0 mm 2 mps 750 mmHg 46%
    17:00 +24°C° 0 mm 2 mps 750 mmHg 53%
    18:00 +23°C° 0 mm 1 mps 750 mmHg 60%
    19:00 +22°C° 0 mm 1 mps 750 mmHg 66%
    20:00 +20°C° 0 mm 1 mps 750 mmHg 70%
    21:00 +18°C° 0 mm 1 mps 750 mmHg 75%
    22:00 +15°C° 0 mm 1 mps 750 mmHg 79%
    23:00 +13°C° 0 mm 0 mps 750 mmHg 80%

    Tomorrow, 18 July, Thursday

    Time Temperature Precipitation Wind Pressure Humidity
    00:00 +13°C° 0 mm 0 mps 750 mmHg 81%
    01:00 +12°C° 0 mm 0 mps 750 mmHg 83%
    02:00 +12°C° 0 mm 0 mps 750 mmHg 84%
    03:00 +11°C° 0 mm 0 mps 750 mmHg 85%
    04:00 +11°C° 0 mm 0 mps 750 mmHg 86%
    05:00 +13°C° 0 mm 0 mps 750 mmHg 80%
    06:00 +15°C° 0 mm 0 mps 750 mmHg 74%
    07:00 +17°C° 0 mm 0 mps 749 mmHg 68%
    08:00 +19°C° 0 mm 0 mps 749 mmHg 62%
    09:00 +21°C° 0 mm 0 mps 749 mmHg 56%
    10:00 +25°C° 0 mm 1 mps 749 mmHg 49%
    11:00 +26°C° 0 mm 1 mps 749 mmHg 47%
    12:00 +26°C° 0 mm 1 mps 748 mmHg 44%
    13:00 +27°C° 0 mm 1 mps 748 mmHg 41%
    14:00 +25°C° 0 mm 0 mps 748 mmHg 42%
    15:00 +25°C° 0 mm 0 mps 748 mmHg 43%
    16:00 +25°C° 0 mm 0 mps 748 mmHg 44%
    17:00 +26°C° 0 mm 1 mps 747 mmHg 52%
    18:00 +25°C° 0 mm 1 mps 747 mmHg 61%
    19:00 +23°C° 0 mm 1 mps 747 mmHg 69%
    20:00 +21°C° 0.1 mm 1 mps 747 mmHg 74%
    21:00 +20°C° 0.1 mm 1 mps 747 mmHg 80%
    22:00 +18°C° 0.1 mm 1 mps 747 mmHg 85%
    23:00 +16°C° 0.2 mm 1 mps 747 mmHg 87%

    Day after tomorrow, 19 July, Friday

    Time Temperature Precipitation Wind Pressure Humidity
    00:00 +15°C° 0.2 mm 2 mps 747 mmHg 89%
    01:00 +15°C° 0.2 mm 2 mps 747 mmHg 90%
    02:00 +14°C° 0.5 mm 2 mps 747 mmHg 91%
    03:00 +14°C° 0.5 mm 2 mps 746 mmHg 92%
    04:00 +14°C° 0.5 mm 2 mps 746 mmHg 93%
    05:00 +15°C° 0.2 mm 2 mps 746 mmHg 91%
    06:00 +16°C° 0.2 mm 2 mps 746 mmHg 89%
    07:00 +17°C° 0.2 mm 2 mps 746 mmHg 88%
    08:00 +19°C° 0 mm 2 mps 746 mmHg 80%
    09:00 +23°C° 0 mm 2 mps 746 mmHg 72%
    10:00 +25°C° 0 mm 1 mps 746 mmHg 65%
    11:00 +27°C° 0 mm 1 mps 746 mmHg 62%
    12:00 +28°C° 0 mm 1 mps 746 mmHg 59%
    13:00 +28°C° 0 mm 0 mps 746 mmHg 57%
    14:00 +29°C° 0.2 mm 1 mps 746 mmHg 60%
    15:00 +28°C° 0.2 mm 1 mps 746 mmHg 63%
    16:00 +28°C° 0.2 mm 2 mps 746 mmHg 67%
    17:00 +27°C° 0.2 mm 1 mps 746 mmHg 74%
    18:00 +26°C° 0.2 mm 1 mps 746 mmHg 81%
    19:00 +25°C° 0.2 mm 1 mps 746 mmHg 88%
    20:00 +23°C° 0 mm 1 mps 747 mmHg 91%
    21:00 +22°C° 0 mm 1 mps 747 mmHg 94%
    22:00 +21°C° 0 mm 1 mps 747 mmHg 96%
    23:00 +20°C° 0 mm 1 mps 747 mmHg 96%

    20 July, Saturday

    Time Temperature Precipitation Wind Pressure Humidity
    00:00 +20°C° 0 mm 1 mps 747 mmHg 97%
    01:00 +19°C° 0 mm 1 mps 747 mmHg 97%
    02:00 +19°C° 0 mm 1 mps 747 mmHg 97%
    03:00 +19°C° 0 mm 1 mps 748 mmHg 97%
    04:00 +19°C° 0 mm 1 mps 748 mmHg 97%
    05:00 +19°C° 0 mm 1 mps 748 mmHg 96%
    06:00 +20°C° 0 mm 1 mps 748 mmHg 94%
    07:00 +21°C° 0 mm 1 mps 748 mmHg 92%
    08:00 +23°C° 0 mm 1 mps 748 mmHg 82%
    09:00 +25°C° 0 mm 2 mps 748 mmHg 72%
    10:00 +26°C° 0 mm 2 mps 748 mmHg 62%
    11:00 +27°C° 0 mm 2 mps 748 mmHg 57%
    12:00 +28°C° 0 mm 1 mps 748 mmHg 52%
    13:00 +29°C° 0 mm 1 mps 748 mmHg 47%
    14:00 +29°C° 0 mm 1 mps 748 mmHg 47%
    15:00 +29°C° 0 mm 1 mps 748 mmHg 46%
    16:00 +29°C° 0 mm 1 mps 748 mmHg 46%
    17:00 +28°C° 0 mm 1 mps 748 mmHg 54%
    18:00 +27°C° 0 mm 1 mps 747 mmHg 62%
    19:00 +25°C° 0 mm 1 mps 747 mmHg 70%
    20:00 +24°C° 0 mm 1 mps 747 mmHg 74%
    21:00 +22°C° 0 mm 1 mps 747 mmHg 77%
    22:00 +20°C° 0 mm 1 mps 747 mmHg 81%
    23:00 +20°C° 0.1 mm 1 mps 747 mmHg 82%

    21 July, Sunday

    Time Temperature Precipitation Wind Pressure Humidity
    00:00 +20°C° 0.1 mm 1 mps 747 mmHg 82%
    01:00 +19°C° 0.1 mm 1 mps 746 mmHg 83%
    02:00 +19°C° 0.4 mm 1 mps 746 mmHg 84%
    03:00 +19°C° 0.4 mm 1 mps 746 mmHg 85%
    04:00 +19°C° 0.4 mm 1 mps 746 mmHg 86%
    05:00 +19°C° 0.2 mm 1 mps 746 mmHg 86%
    06:00 +20°C° 0.2 mm 1 mps 746 mmHg 85%
    07:00 +21°C° 0.2 mm 1 mps 746 mmHg 85%
    08:00 +22°C° 0.6 mm 1 mps 746 mmHg 84%
    09:00 +23°C° 0.6 mm 1 mps 745 mmHg 82%
    10:00 +24°C° 0.6 mm 1 mps 745 mmHg 81%
    11:00 +25°C° 0.6 mm 1 mps 745 mmHg 75%
    12:00 +25°C° 0.6 mm 2 mps 745 mmHg 68%
    13:00 +26°C° 0.6 mm 2 mps 745 mmHg 62%
    14:00 +26°C° 0.6 mm 2 mps 745 mmHg 65%
    15:00 +26°C° 0.6 mm 2 mps 745 mmHg 68%
    16:00 +25°C° 0.6 mm 2 mps 745 mmHg 71%
    17:00 +25°C° 0.3 mm 1 mps 745 mmHg 75%
    18:00 +24°C° 0.3 mm 1 mps 745 mmHg 79%
    19:00 +23°C° 0.3 mm 1 mps 745 mmHg 84%
    20:00 +22°C° 0.1 mm 1 mps 745 mmHg 87%
    21:00 +20°C° 0.1 mm 1 mps 744 mmHg 90%
    22:00 +18°C° 0.1 mm 1 mps 744 mmHg 93%
    23:00 +18°C° 0.1 mm 1 mps 744 mmHg 94%

    22 July, Monday

    Time Temperature Precipitation Wind Pressure Humidity
    00:00 +16°C° 0.1 mm 1 mps 744 mmHg 95%
    01:00 +16°C° 0.1 mm 1 mps 744 mmHg 96%
    02:00 +16°C° 0 mm 1 mps 744 mmHg 96%
    03:00 +15°C° 0 mm 1 mps 744 mmHg 96%
    04:00 +15°C° 0 mm 1 mps 744 mmHg 97%
    05:00 +16°C° 0 mm 1 mps 744 mmHg 95%
    06:00 +18°C° 0 mm 1 mps 744 mmHg 94%
    07:00 +19°C° 0 mm 1 mps 744 mmHg 92%
    08:00 +19°C° 0.5 mm 2 mps 744 mmHg 88%
    09:00 +20°C° 0.5 mm 2 mps 744 mmHg 84%
    10:00 +23°C° 0.5 mm 2 mps 744 mmHg 80%
    11:00 +22°C° 0.5 mm 3 mps 744 mmHg 77%
    12:00 +24°C° 0.5 mm 3 mps 744 mmHg 74%
    13:00 +24°C° 0.5 mm 3 mps 744 mmHg 70%
    14:00 +24°C° 1.1 mm 3 mps 744 mmHg 74%
    15:00 +22°C° 1.1 mm 3 mps 744 mmHg 77%
    16:00 +22°C° 1.1 mm 3 mps 744 mmHg 80%
    17:00 +21°C° 1.3 mm 3 mps 744 mmHg 83%
    18:00 +20°C° 1.3 mm 3 mps 744 mmHg 86%
    19:00 +19°C° 1.3 mm 2 mps 744 mmHg 90%
    20:00 +18°C° 0.1 mm 2 mps 744 mmHg 92%
    21:00 +17°C° 0.1 mm 2 mps 744 mmHg 94%
    22:00 +16°C° 0.1 mm 2 mps 744 mmHg 96%
    23:00 +15°C° 0 mm 1 mps 744 mmHg 96%
    Show more